Погода в Воскресенском

Россия / Ярославская область     58°30′12″N   40°31′53″E
темп.,
°C
ветер,
м/с
пор.,
м/с
влажн.,
%
обл.,
%
осадки,
мм/ч
давл.,
гПа
погр.,
м
20 июня, вс
вс2000:00+18з27885 0.0 1021116
03:00+16з25915 0.0 102179
06:00+20з13795 0.0 1021123
09:00+26юз34560 0.0 1021611
12:00+29зюз45400 0.0 10201807
15:00+30зюз45370 0.0 10191997
18:00+28зсз255170 0.0 1018535
21:00+21зюз22803 0.0 101935
21 июня, пн
пн2100:00+19зюз23830 0.0 101947
03:00+17зюз23860 0.0 102047
06:00+21зюз24780 0.0 1020146
09:00+27зюз24550 0.0 1020602
12:00+30зюз24423 0.0 10192286
15:00+31з343787 0.0 10192635
18:00+28з24565 0.0 1019611
21:00+22юз238727 0.3 102045
22 июня, вт
вт2200:00+20зюз229223 0.0 102023
03:00+19зюз22955 0.0 102122
06:00+21юз138749 0.1 1021106
09:00+27юз235316 0.1 1021608
12:00+30юз333999 0.0 10211646
15:00+31юз233412 0.0 10202264
18:00+29ююз36495 0.0 1019596
21:00+22юз127710 0.0 102012
23 июня, ср
ср2300:00+20юз127989 0.0 102013
03:00+19ююз11924 0.0 102111
06:00+22юз12790 0.0 1021123
09:00+28зюз23551 0.0 1021644
12:00+32з233759 0.0 10211655
15:00+32з3434100 0.0 10201943
18:00+31зсз244754 0.0 1020279
21:00+23юз227211 0.0 102017
24 июня, чт
чт2400:00+21юз22765 0.0 102022
03:00+20зюз247929 0.0 102061
06:00+23зюз277523 0.0 1020203
09:00+29зюз355123 0.0 1019558
12:00+33зюз453638 0.0 10182227
15:00+33зсз453233 0.0 10182714
18:00+31з35445 0.0 1017457
21:00+24сз12735 0.0 101612